Woodward, OK

10:59 AM CST on February 12, 2016 (GMT -0600)
West Woodward

Weather History for KWWR - March, 2013

Change the Weather History Date:

Friday, March 29, 2013

  Actual Average (KGAG) Record (KGAG)
Temperature  
Mean Temperature 58 °F -  
Max Temperature 71 °F 61 °F 92 °F (1967)
Min Temperature 44 °F 37 °F 17 °F (1970)
Degree Days  
Heating Degree Days 8    
Growing Degree Days 8 (Base 50)    
Moisture  
Dew Point 51 °F    
Average Humidity 78    
Maximum Humidity 100    
Minimum Humidity 53    
Precipitation  
Precipitation 0.00 in - - ()
Sea Level Pressure  
Sea Level Pressure 30.07 in    
Wind  
Wind Speed 6 mph (ESE)    
Max Wind Speed 17 mph    
Max Gust Speed 25 mph    
Visibility 8 miles    
Events Fog , Rain    
Averages and records for this station are not official NWS values.
T = Trace of Precipitation, MM = Missing Value Source: NWS Daily Summary

Daily Weather History Graph

Daily Weather History Graph

Search for Another Location

Airport or City:

Trip Planner

Search our weather history database for the weather conditions in past years. The results will help you decide how hot, cold, wet, or windy it might be!

Date:

Astronomy

Mar. 29, 2013 Rise Set
Actual Time 7:28 AM CDT 7:57 PM CDT
Civil Twilight 7:02 AM CDT 8:23 PM CDT
Nautical Twilight 6:31 AM CDT 8:54 PM CDT
Astronomical Twilight 6:00 AM CDT 9:25 PM CDT
Moon 10:53 PM CDT (3/29) 8:43 AM CDT (3/29)
Length of Visible Light 13h 21m
Length of Day
12h 29m
Waning Gibbous, 93% of the Moon is Illuminated
Mar 29
Waning Gibbous
Apr 2
Last Quarter
Apr 10
New
Apr 18
First Quarter
Apr 25
Full

Hourly Weather History & Observations

Time (CDT) Temp. Windchill Dew Point Humidity Pressure Visibility Wind Dir Wind Speed Gust Speed Precip Events Conditions
12:15 AM 53.6 °F - 46.4 °F 77% 30.10 in 10.0 mi East 4.6 mph - N/A   Clear
12:35 AM 53.6 °F - 48.2 °F 82% 30.09 in 10.0 mi ESE 5.8 mph - N/A   Clear
12:55 AM 53.6 °F - 48.2 °F 82% 30.09 in 10.0 mi ESE 6.9 mph - N/A   Clear
1:15 AM 53.6 °F - 48.2 °F 82% 30.09 in 10.0 mi East 6.9 mph - N/A   Clear
1:35 AM 53.6 °F - 48.2 °F 82% 30.10 in 10.0 mi ESE 3.5 mph - N/A   Clear
1:55 AM 53.6 °F - 50.0 °F 88% 30.09 in 10.0 mi SE 5.8 mph - N/A   Clear
2:15 AM 53.6 °F - 50.0 °F 88% 30.09 in 10.0 mi SSE 6.9 mph - N/A   Clear
2:35 AM 53.6 °F - 50.0 °F 88% 30.09 in 10.0 mi Calm Calm - N/A   Clear
2:55 AM 51.8 °F - 48.2 °F 88% 30.10 in 10.0 mi Calm Calm - N/A   Clear
3:15 AM 51.8 °F - 50.0 °F 94% 30.09 in 10.0 mi ENE 4.6 mph - N/A   Clear
3:35 AM 51.8 °F - 50.0 °F 94% 30.09 in 10.0 mi East 3.5 mph - N/A   Clear
3:55 AM 53.6 °F - 50.0 °F 88% 30.09 in 10.0 mi Calm Calm - N/A   Clear
4:15 AM 46.4 °F - 44.6 °F 93% 30.09 in 7.0 mi Calm Calm - N/A   Clear
4:35 AM 48.2 °F - 46.4 °F 93% 30.09 in 10.0 mi Calm Calm - N/A   Clear
4:55 AM 48.2 °F - 46.4 °F 93% 30.08 in 7.0 mi Calm Calm - N/A   Clear
5:15 AM 48.2 °F - 46.4 °F 93% 30.08 in 5.0 mi ESE 3.5 mph - N/A   Clear
5:35 AM 48.2 °F - 46.4 °F 93% 30.07 in 2.5 mi East 3.5 mph - N/A   Clear
5:55 AM 44.6 °F - 42.8 °F 93% 30.07 in 0.2 mi Calm Calm - N/A Fog Fog
6:15 AM 44.6 °F 43.1 °F 42.8 °F 93% 30.08 in 0.5 mi East 3.5 mph - N/A Fog Fog
6:35 AM 44.6 °F 42.2 °F 44.6 °F 100% 30.09 in 0.2 mi NNE 4.6 mph - N/A Fog Fog
6:55 AM 44.6 °F 42.2 °F 42.8 °F 93% 30.09 in 0.2 mi NE 4.6 mph - N/A   Unknown
7:15 AM 46.4 °F - 44.6 °F 93% 30.09 in 0.2 mi Calm Calm - N/A Fog Fog
7:35 AM 46.4 °F - 44.6 °F 93% 30.10 in 0.2 mi Calm Calm - N/A Fog Fog
7:55 AM 46.4 °F 44.3 °F 46.4 °F 100% 30.11 in 0.2 mi NNE 4.6 mph - N/A   Unknown
8:15 AM 48.2 °F - 46.4 °F 93% 30.11 in 0.2 mi NE 6.9 mph - N/A   Unknown
8:35 AM 48.2 °F - 46.4 °F 93% 30.12 in 0.2 mi ENE 4.6 mph - N/A Rain Light Rain
8:55 AM 50.0 °F - 48.2 °F 94% 30.13 in 0.2 mi East 3.5 mph - N/A Rain Rain
9:15 AM 51.8 °F - 50.0 °F 94% 30.13 in 0.2 mi East 4.6 mph - N/A   Drizzle
9:35 AM 51.8 °F - 50.0 °F 94% 30.13 in 0.2 mi East 8.1 mph - N/A   Drizzle
9:55 AM 51.8 °F - 51.8 °F 100% 30.13 in 0.2 mi East 9.2 mph - N/A   Drizzle
10:15 AM 53.6 °F - 51.8 °F 94% 30.13 in 0.2 mi East 9.2 mph - N/A   Light Drizzle
10:35 AM 53.6 °F - 53.6 °F 100% 30.13 in 0.2 mi East 9.2 mph - N/A Fog Fog
10:55 AM 55.4 °F - 53.6 °F 94% 30.12 in 0.8 mi ENE 9.2 mph - N/A   Overcast
11:15 AM 55.4 °F - 53.6 °F 94% 30.12 in 5.0 mi East 8.1 mph - N/A   Overcast
11:35 AM 57.2 °F - 53.6 °F 88% 30.12 in 7.0 mi ENE 8.1 mph - N/A   Overcast
11:55 AM 60.8 °F - 53.6 °F 77% 30.12 in 10.0 mi East 6.9 mph - N/A   Overcast
12:15 PM 62.6 °F - 53.6 °F 72% 30.12 in 10.0 mi ESE 5.8 mph - N/A   Scattered Clouds
12:35 PM 62.6 °F - 55.4 °F 77% 30.11 in 10.0 mi ESE 5.8 mph - N/A   Clear
12:55 PM 64.4 °F - 53.6 °F 68% 30.11 in 10.0 mi ENE 5.8 mph - N/A   Clear
1:15 PM 68.0 °F - 53.6 °F 60% 30.10 in 10.0 mi East 8.1 mph - N/A   Scattered Clouds
1:35 PM 69.8 °F - 53.6 °F 56% 30.09 in 10.0 mi ESE 11.5 mph - N/A   Scattered Clouds
1:55 PM 69.8 °F - 53.6 °F 56% 30.09 in 10.0 mi SE 13.8 mph 18.4 mph N/A   Scattered Clouds
2:15 PM 69.8 °F - 53.6 °F 56% 30.08 in 10.0 mi ESE 17.3 mph 23.0 mph N/A   Mostly Cloudy
2:35 PM 69.8 °F - 53.6 °F 56% 30.07 in 10.0 mi ESE 13.8 mph 23.0 mph N/A   Scattered Clouds
2:55 PM 69.8 °F - 53.6 °F 56% 30.07 in 10.0 mi ESE 15.0 mph 20.7 mph N/A   Mostly Cloudy
3:15 PM 69.8 °F - 53.6 °F 56% 30.06 in 10.0 mi ESE 16.1 mph 25.3 mph N/A   Mostly Cloudy
3:35 PM 69.8 °F - 53.6 °F 56% 30.05 in 10.0 mi ESE 16.1 mph 24.2 mph N/A   Mostly Cloudy
3:55 PM 71.6 °F - 53.6 °F 53% 30.05 in 10.0 mi ESE 12.7 mph 20.7 mph N/A   Mostly Cloudy
4:15 PM 69.8 °F - 53.6 °F 56% 30.05 in 10.0 mi ESE 12.7 mph 19.6 mph N/A   Overcast
4:35 PM 69.8 °F - 53.6 °F 56% 30.04 in 10.0 mi ESE 11.5 mph - N/A   Overcast
4:55 PM 71.6 °F - 53.6 °F 53% 30.03 in 10.0 mi ESE 12.7 mph - N/A   Mostly Cloudy
5:15 PM 69.8 °F - 53.6 °F 56% 30.03 in 10.0 mi East 13.8 mph 17.3 mph N/A   Mostly Cloudy
5:35 PM 71.6 °F - 53.6 °F 53% 30.02 in 10.0 mi SE 11.5 mph - N/A   Mostly Cloudy
5:55 PM 71.6 °F - 53.6 °F 53% 30.02 in 10.0 mi SE 13.8 mph - N/A   Mostly Cloudy
6:15 PM 71.6 °F - 53.6 °F 53% 30.02 in 10.0 mi ESE 15.0 mph - N/A   Scattered Clouds
6:35 PM 69.8 °F - 53.6 °F 56% 30.02 in 10.0 mi ESE 10.4 mph - N/A   Mostly Cloudy
6:55 PM 69.8 °F - 53.6 °F 56% 30.02 in 10.0 mi ESE 11.5 mph 17.3 mph N/A   Scattered Clouds
7:15 PM 69.8 °F - 53.6 °F 56% 30.02 in 10.0 mi East 11.5 mph - N/A   Scattered Clouds
7:35 PM 68.0 °F - 55.4 °F 64% 30.02 in 10.0 mi ESE 11.5 mph - N/A   Mostly Cloudy
7:55 PM 68.0 °F - 55.4 °F 64% 30.01 in 10.0 mi ESE 11.5 mph - N/A   Overcast
8:15 PM 64.4 °F - 55.4 °F 73% 30.02 in 10.0 mi SE 6.9 mph - N/A   Mostly Cloudy
8:35 PM 64.4 °F - 55.4 °F 73% 30.02 in 10.0 mi ESE 5.8 mph - N/A   Scattered Clouds
8:55 PM 62.6 °F - 53.6 °F 72% 30.02 in 10.0 mi ESE 5.8 mph - N/A   Scattered Clouds
9:15 PM 62.6 °F - 55.4 °F 77% 30.02 in 10.0 mi East 6.9 mph - N/A   Mostly Cloudy
9:35 PM 62.6 °F - 53.6 °F 72% 30.03 in 10.0 mi East 5.8 mph - N/A   Mostly Cloudy
9:55 PM 62.6 °F - 53.6 °F 72% 30.04 in 10.0 mi East 4.6 mph - N/A   Overcast
10:15 PM 60.8 °F - 55.4 °F 82% 30.04 in 10.0 mi East 6.9 mph - N/A   Overcast
10:35 PM 60.8 °F - 53.6 °F 77% 30.03 in 10.0 mi SE 5.8 mph - N/A   Mostly Cloudy
10:55 PM 60.8 °F - 53.6 °F 77% 30.04 in 10.0 mi South 5.8 mph - N/A   Mostly Cloudy
11:15 PM 60.8 °F - 53.6 °F 77% 30.03 in 10.0 mi SSE 3.5 mph - N/A   Mostly Cloudy
11:35 PM 60.8 °F - 53.6 °F 77% 30.03 in 10.0 mi South 3.5 mph - N/A   Overcast
11:55 PM 59.0 °F - 53.6 °F 82% 30.02 in 10.0 mi SSE 5.8 mph - N/A   Mostly Cloudy